GALAXY 19 (G-19)

Last updated on Thu Sep 10 2026 00:02:56 GMT+0000 (Coordinated Universal Time)

1 33376U 08045A 26252.48308721 -.00000161 00000+0 00000+0 0 9996 2 33376 0.0462 255.5030 0002686 296.0936 233.8572 1.00272790 65743
UTC large
Height (km)
Speed (km/s)
/
Latitude / Longitude
Inclination (degrees)
Orbital Period (minutes)
Azimuth
Elevation
Range (km)
Doppler Factor

Next 0 passes for location: London (51.5072 / 0.1276)

No passes found over London.
GALAXY 19 (G-19)